TimeEDT,TemperatureF,Dew PointF,Humidity,Sea Level PressureIn,VisibilityMPH,Wind Direction,Wind SpeedMPH,Gust SpeedMPH,PrecipitationIn,Events,Conditions,WindDirDegrees,DateUTC
12:15 AM,62.6,59.0,88,30.08,10.0,Calm,Calm,-,N/A,,Mostly Cloudy,0,2013-04-25 04:15:00
12:35 AM,62.6,59.0,88,30.08,10.0,Calm,Calm,-,N/A,,Overcast,0,2013-04-25 04:35:00
12:55 AM,62.6,59.0,88,30.08,10.0,Calm,Calm,-,N/A,,Overcast,0,2013-04-25 04:55:00
1:15 AM,62.6,59.0,88,30.09,10.0,Calm,Calm,-,N/A,,Mostly Cloudy,0,2013-04-25 05:15:00
1:35 AM,64.4,59.0,83,30.08,10.0,WSW,5.8,-,N/A,,Overcast,250,2013-04-25 05:35:00
1:55 AM,62.6,59.0,88,30.08,10.0,West,3.5,-,N/A,,Overcast,270,2013-04-25 05:55:00
2:15 AM,62.6,59.0,88,30.08,10.0,West,4.6,-,N/A,,Overcast,280,2013-04-25 06:15:00
2:35 AM,62.6,59.0,88,30.08,10.0,West,6.9,-,N/A,,Overcast,280,2013-04-25 06:35:00
2:55 AM,62.6,59.0,88,30.08,10.0,West,6.9,-,N/A,,Overcast,280,2013-04-25 06:55:00
3:15 AM,60.8,59.0,94,30.07,10.0,West,4.6,-,N/A,,Scattered Clouds,280,2013-04-25 07:15:00
3:35 AM,60.8,55.4,82,30.08,10.0,WNW,3.5,-,N/A,,Mostly Cloudy,290,2013-04-25 07:35:00
3:55 AM,60.8,57.2,88,30.08,10.0,WNW,4.6,-,N/A,,Overcast,290,2013-04-25 07:55:00
4:15 AM,60.8,55.4,82,30.08,10.0,WNW,3.5,-,N/A,,Overcast,290,2013-04-25 08:15:00
4:35 AM,59.0,55.4,88,30.09,10.0,West,5.8,-,N/A,,Overcast,280,2013-04-25 08:35:00
4:55 AM,59.0,53.6,82,30.10,10.0,West,8.1,-,N/A,,Overcast,280,2013-04-25 08:55:00
5:15 AM,59.0,53.6,82,30.10,10.0,West,4.6,-,N/A,,Overcast,280,2013-04-25 09:15:00
5:35 AM,57.2,53.6,88,30.11,10.0,West,4.6,-,N/A,,Overcast,270,2013-04-25 09:35:00
5:55 AM,55.4,53.6,94,30.12,10.0,West,4.6,-,N/A,,Mostly Cloudy,270,2013-04-25 09:55:00
6:15 AM,55.4,51.8,88,30.13,10.0,WSW,3.5,-,N/A,,Mostly Cloudy,250,2013-04-25 10:15:00
6:35 AM,53.6,51.8,94,30.13,10.0,West,4.6,-,N/A,,Mostly Cloudy,280,2013-04-25 10:35:00
6:55 AM,53.6,51.8,94,30.14,10.0,West,4.6,-,N/A,,Mostly Cloudy,280,2013-04-25 10:55:00
7:15 AM,53.6,50.0,88,30.15,10.0,WNW,5.8,-,N/A,,Overcast,290,2013-04-25 11:15:00
7:35 AM,53.6,50.0,88,30.16,10.0,West,4.6,-,N/A,,Mostly Cloudy,270,2013-04-25 11:35:00
7:55 AM,53.6,50.0,88,30.17,10.0,Calm,Calm,-,N/A,,Overcast,0,2013-04-25 11:55:00
8:15 AM,53.6,51.8,94,30.18,10.0,Calm,Calm,-,N/A,,Overcast,0,2013-04-25 12:15:00
8:35 AM,53.6,50.0,88,30.17,10.0,Calm,Calm,-,N/A,,Mostly Cloudy,0,2013-04-25 12:35:00
8:55 AM,55.4,50.0,82,30.18,10.0,West,4.6,-,N/A,,Mostly Cloudy,270,2013-04-25 12:55:00
9:15 AM,55.4,50.0,82,30.18,10.0,WNW,4.6,-,N/A,,Mostly Cloudy,290,2013-04-25 13:15:00
9:35 AM,55.4,50.0,82,30.17,10.0,Calm,Calm,-,N/A,,Scattered Clouds,0,2013-04-25 13:35:00
9:55 AM,59.0,50.0,72,30.18,10.0,West,8.1,-,N/A,,Scattered Clouds,280,2013-04-25 13:55:00
10:15 AM,59.0,50.0,72,30.19,10.0,NW,5.8,-,N/A,,Scattered Clouds,310,2013-04-25 14:15:00
10:35 AM,60.8,50.0,68,30.20,10.0,West,5.8,-,N/A,,Clear,270,2013-04-25 14:35:00
10:55 AM,60.8,50.0,68,30.20,10.0,WSW,3.5,-,N/A,,Clear,240,2013-04-25 14:55:00
11:15 AM,62.6,50.0,63,30.20,10.0,West,3.5,-,N/A,,Clear,260,2013-04-25 15:15:00
11:35 AM,64.4,50.0,59,30.20,10.0,Calm,Calm,-,N/A,,Clear,0,2013-04-25 15:35:00
11:55 AM,64.4,46.4,52,30.20,10.0,WNW,3.5,-,N/A,,Clear,290,2013-04-25 15:55:00
12:15 PM,68.0,48.2,49,30.20,10.0,WSW,4.6,-,N/A,,Clear,250,2013-04-25 16:15:00
12:35 PM,68.0,50.0,52,30.20,10.0,WNW,4.6,-,N/A,,Clear,300,2013-04-25 16:35:00
12:55 PM,69.8,46.4,43,30.20,10.0,WNW,5.8,-,N/A,,Clear,290,2013-04-25 16:55:00
1:15 PM,69.8,46.4,43,30.20,10.0,NW,6.9,-,N/A,,Clear,320,2013-04-25 17:15:00
1:35 PM,69.8,42.8,38,30.20,10.0,West,5.8,-,N/A,,Clear,270,2013-04-25 17:35:00
1:55 PM,71.6,42.8,35,30.20,10.0,WSW,5.8,-,N/A,,Clear,250,2013-04-25 17:55:00
2:15 PM,71.6,41.0,33,30.20,10.0,West,6.9,-,N/A,,Clear,280,2013-04-25 18:15:00
2:35 PM,73.4,41.0,31,30.20,10.0,West,8.1,-,N/A,,Clear,280,2013-04-25 18:35:00
2:55 PM,73.4,39.2,29,30.20,10.0,West,6.9,-,N/A,,Clear,270,2013-04-25 18:55:00
3:15 PM,73.4,32.0,22,30.19,10.0,West,6.9,-,N/A,,Clear,280,2013-04-25 19:15:00
3:35 PM,73.4,32.0,22,30.18,10.0,West,9.2,-,N/A,,Clear,280,2013-04-25 19:35:00
3:55 PM,75.2,32.0,21,30.18,10.0,WNW,5.8,-,N/A,,Clear,290,2013-04-25 19:55:00
4:15 PM,75.2,33.8,22,30.17,10.0,NW,8.1,-,N/A,,Clear,310,2013-04-25 20:15:00
4:35 PM,77.0,32.0,19,30.16,10.0,WNW,9.2,-,N/A,,Clear,300,2013-04-25 20:35:00
4:55 PM,75.2,30.2,19,30.16,10.0,West,4.6,-,N/A,,Clear,280,2013-04-25 20:55:00
5:15 PM,77.0,30.2,18,30.16,10.0,WNW,8.1,-,N/A,,Clear,300,2013-04-25 21:15:00
5:35 PM,75.2,28.4,18,30.17,10.0,WNW,4.6,-,N/A,,Clear,300,2013-04-25 21:35:00
5:55 PM,75.2,26.6,17,30.17,10.0,West,8.1,-,N/A,,Clear,280,2013-04-25 21:55:00
6:15 PM,75.2,26.6,17,30.18,10.0,Calm,Calm,-,N/A,,Clear,0,2013-04-25 22:15:00
6:35 PM,73.4,24.8,16,30.18,10.0,Calm,Calm,-,N/A,,Clear,0,2013-04-25 22:35:00
6:55 PM,73.4,26.6,18,30.18,10.0,NW,3.5,-,N/A,,Clear,310,2013-04-25 22:55:00
7:15 PM,71.6,30.2,22,30.18,10.0,WNW,3.5,-,N/A,,Clear,290,2013-04-25 23:15:00
7:35 PM,71.6,32.0,23,30.19,10.0,Calm,Calm,-,N/A,,Clear,0,2013-04-25 23:35:00
7:55 PM,69.8,33.8,27,30.19,10.0,Calm,Calm,-,N/A,,Clear,0,2013-04-25 23:55:00
8:15 PM,66.2,33.8,30,30.19,10.0,Calm,Calm,-,N/A,,Clear,0,2013-04-26 00:15:00
8:35 PM,62.6,41.0,45,30.20,10.0,Calm,Calm,-,N/A,,Clear,0,2013-04-26 00:35:00
8:55 PM,62.6,37.4,39,30.20,10.0,Calm,Calm,-,N/A,,Clear,0,2013-04-26 00:55:00
9:15 PM,62.6,37.4,39,30.21,10.0,Calm,Calm,-,N/A,,Clear,0,2013-04-26 01:15:00
9:35 PM,62.6,35.6,37,30.22,10.0,West,3.5,-,N/A,,Clear,280,2013-04-26 01:35:00
9:55 PM,60.8,37.4,42,30.23,10.0,Calm,Calm,-,N/A,,Clear,0,2013-04-26 01:55:00
10:15 PM,60.8,37.4,42,30.23,10.0,West,4.6,-,N/A,,Clear,280,2013-04-26 02:15:00
10:35 PM,59.0,37.4,45,30.24,10.0,West,3.5,-,N/A,,Clear,280,2013-04-26 02:35:00
10:55 PM,59.0,37.4,45,30.25,10.0,West,3.5,-,N/A,,Clear,270,2013-04-26 02:55:00
11:15 PM,57.2,37.4,48,30.25,10.0,Calm,Calm,-,N/A,,Clear,0,2013-04-26 03:15:00
11:35 PM,55.4,37.4,51,30.25,10.0,Calm,Calm,-,N/A,,Clear,0,2013-04-26 03:35:00
11:55 PM,55.4,37.4,51,30.25,10.0,Calm,Calm,-,N/A,,Clear,0,2013-04-26 03:55:00